TimeCDT,TemperatureF,Dew PointF,Humidity,Sea Level PressureIn,VisibilityMPH,Wind Direction,Wind SpeedMPH,Gust SpeedMPH,PrecipitationIn,Events,Conditions,WindDirDegrees,DateUTC
12:15 AM,54.0,52.9,96,29.98,10.0,NE,4.6,-,N/A,,Overcast,50,2013-09-25 05:15:00
12:35 AM,54.0,52.7,95,29.98,10.0,NE,4.6,-,N/A,,Overcast,50,2013-09-25 05:35:00
12:55 AM,54.0,52.7,95,29.99,10.0,ENE,5.8,-,N/A,,Overcast,70,2013-09-25 05:55:00
1:15 AM,54.1,53.1,96,29.99,10.0,ENE,4.6,-,N/A,,Overcast,60,2013-09-25 06:15:00
1:35 AM,54.1,52.9,95,29.99,10.0,ENE,4.6,-,N/A,,Overcast,60,2013-09-25 06:35:00
1:55 AM,54.0,52.9,96,29.99,10.0,NE,4.6,-,N/A,,Overcast,50,2013-09-25 06:55:00
2:35 AM,54.0,53.1,97,29.99,7.0,ENE,3.5,-,N/A,,Overcast,60,2013-09-25 07:35:00
2:55 AM,53.8,53.1,97,29.99,7.0,Calm,Calm,-,N/A,,Overcast,0,2013-09-25 07:55:00
3:15 AM,53.8,53.2,98,29.99,5.0,NE,4.6,-,N/A,,Overcast,50,2013-09-25 08:15:00
3:35 AM,53.8,53.2,98,29.99,5.0,NNE,4.6,-,N/A,,Overcast,30,2013-09-25 08:35:00
3:55 AM,53.6,53.1,98,29.99,5.0,NE,3.5,-,N/A,,Overcast,40,2013-09-25 08:55:00
4:35 AM,53.6,52.9,97,29.99,5.0,Calm,Calm,-,N/A,,Overcast,0,2013-09-25 09:35:00
4:55 AM,53.6,52.9,97,29.99,5.0,Calm,Calm,-,N/A,,Overcast,0,2013-09-25 09:55:00
5:15 AM,53.6,52.9,97,29.99,5.0,Calm,Calm,-,N/A,,Overcast,0,2013-09-25 10:15:00
5:35 AM,53.6,52.9,97,29.99,5.0,Calm,Calm,-,N/A,,Overcast,0,2013-09-25 10:35:00
5:55 AM,53.6,52.7,97,30.00,5.0,Calm,Calm,-,N/A,,Overcast,0,2013-09-25 10:55:00
6:15 AM,53.2,52.7,98,30.00,5.0,Calm,Calm,-,N/A,,Overcast,0,2013-09-25 11:15:00
6:35 AM,53.6,52.7,97,30.00,5.0,Calm,Calm,-,N/A,,Overcast,0,2013-09-25 11:35:00
6:55 AM,53.8,53.1,97,30.00,5.0,Calm,Calm,-,N/A,,Overcast,0,2013-09-25 11:55:00
7:15 AM,53.6,53.1,98,30.01,0.8,Calm,Calm,-,N/A,,Overcast,0,2013-09-25 12:15:00
7:35 AM,53.1,52.9,99,30.01,1.0,Calm,Calm,-,N/A,,Overcast,0,2013-09-25 12:35:00
7:55 AM,53.2,52.9,99,30.01,1.2,Calm,Calm,-,N/A,,Overcast,0,2013-09-25 12:55:00
8:15 AM,53.6,53.2,99,30.01,1.2,Calm,Calm,-,N/A,,Overcast,0,2013-09-25 13:15:00
8:35 AM,53.8,53.2,98,30.01,3.0,Calm,Calm,-,N/A,,Overcast,0,2013-09-25 13:35:00
8:55 AM,54.7,53.4,96,30.01,5.0,Calm,Calm,-,N/A,,Overcast,0,2013-09-25 13:55:00
9:15 AM,55.4,53.8,94,30.01,7.0,Calm,Calm,-,N/A,,Overcast,0,2013-09-25 14:15:00
9:35 AM,56.5,54.0,91,30.01,10.0,Calm,Calm,-,N/A,,Overcast,0,2013-09-25 14:35:00
9:55 AM,56.3,54.0,92,30.01,10.0,NNE,5.8,-,N/A,,Overcast,20,2013-09-25 14:55:00
10:15 AM,55.6,53.6,93,30.01,7.0,ENE,4.6,-,N/A,,Overcast,60,2013-09-25 15:15:00
10:35 AM,56.1,53.6,91,30.01,10.0,NE,4.6,-,N/A,,Overcast,40,2013-09-25 15:35:00
10:55 AM,55.8,53.4,92,30.01,7.0,NE,6.9,-,N/A,,Overcast,50,2013-09-25 15:55:00
11:15 AM,56.7,53.2,88,30.01,10.0,ENE,6.9,-,N/A,,Overcast,70,2013-09-25 16:15:00
11:35 AM,55.6,53.4,92,30.01,10.0,ENE,4.6,-,N/A,,Overcast,60,2013-09-25 16:35:00
11:55 AM,56.5,53.6,90,30.01,10.0,NNE,4.6,-,N/A,,Overcast,30,2013-09-25 16:55:00
12:15 PM,55.9,53.2,91,30.00,10.0,NE,5.8,-,N/A,,Overcast,40,2013-09-25 17:15:00
12:35 PM,56.5,53.6,90,30.01,10.0,NE,6.9,-,N/A,,Overcast,40,2013-09-25 17:35:00
1:15 PM,56.5,53.2,89,29.99,10.0,ENE,6.9,-,N/A,,Overcast,60,2013-09-25 18:15:00
1:35 PM,56.8,53.6,89,29.98,10.0,NE,8.1,-,N/A,,Overcast,40,2013-09-25 18:35:00
1:55 PM,56.5,53.4,89,29.98,7.0,NE,5.8,-,N/A,,Overcast,40,2013-09-25 18:55:00
2:15 PM,56.5,53.1,88,29.97,10.0,East,6.9,-,N/A,,Overcast,80,2013-09-25 19:15:00
2:35 PM,55.2,53.1,92,29.97,3.0,ENE,8.1,-,N/A,,Overcast,70,2013-09-25 19:35:00
2:55 PM,54.5,52.9,94,29.97,3.0,ENE,8.1,-,N/A,,Overcast,70,2013-09-25 19:55:00
3:15 PM,54.3,53.1,95,29.96,1.8,ENE,8.1,-,N/A,,Overcast,60,2013-09-25 20:15:00
3:55 PM,54.3,53.1,95,29.96,2.0,ENE,4.6,-,N/A,,Overcast,60,2013-09-25 20:55:00
4:15 PM,54.1,53.4,97,29.96,1.2,ENE,8.1,-,N/A,,Overcast,70,2013-09-25 21:15:00
4:35 PM,53.8,53.4,99,29.96,1.0,NE,9.2,-,N/A,,Overcast,40,2013-09-25 21:35:00
4:55 PM,53.8,53.1,97,29.96,1.2,ENE,8.1,-,N/A,,Overcast,70,2013-09-25 21:55:00
5:15 PM,53.1,52.7,99,29.96,0.5,ENE,5.8,-,N/A,Fog,Fog,60,2013-09-25 22:15:00
5:35 PM,52.7,52.7,100,29.96,0.5,ENE,6.9,-,N/A,Fog,Fog,60,2013-09-25 22:35:00
5:55 PM,52.7,52.5,99,29.95,0.8,ENE,8.1,-,N/A,,Overcast,60,2013-09-25 22:55:00
6:15 PM,52.9,52.7,99,29.94,0.5,NE,6.9,-,N/A,Fog,Fog,50,2013-09-25 23:15:00
6:35 PM,53.1,52.9,99,29.95,0.8,ENE,5.8,-,N/A,,Overcast,70,2013-09-25 23:35:00
6:55 PM,52.7,52.7,100,29.96,0.5,NE,5.8,-,N/A,Fog,Fog,50,2013-09-25 23:55:00
7:15 PM,52.7,52.7,100,29.95,0.8,ENE,6.9,-,N/A,,Overcast,60,2013-09-26 00:15:00
7:35 PM,52.7,52.7,100,29.95,0.5,NE,6.9,-,N/A,Fog,Fog,40,2013-09-26 00:35:00
7:55 PM,52.7,52.7,100,29.96,0.5,NE,6.9,-,N/A,Fog,Fog,40,2013-09-26 00:55:00
8:15 PM,52.7,52.7,100,29.96,0.5,NE,5.8,-,N/A,Fog,Fog,50,2013-09-26 01:15:00
8:35 PM,52.9,52.9,100,29.96,0.5,NE,8.1,-,N/A,Fog,Fog,50,2013-09-26 01:35:00
8:55 PM,53.2,53.2,100,29.95,0.5,ENE,8.1,-,N/A,Fog,Fog,60,2013-09-26 01:55:00
9:15 PM,53.6,53.6,100,29.95,0.5,NE,8.1,-,N/A,Fog,Fog,50,2013-09-26 02:15:00
9:35 PM,53.6,53.6,100,29.96,0.5,ENE,9.2,-,N/A,Fog,Fog,60,2013-09-26 02:35:00
9:55 PM,53.2,53.2,100,29.96,0.8,ENE,6.9,-,N/A,,Overcast,60,2013-09-26 02:55:00
10:15 PM,53.6,53.6,100,29.97,0.8,ENE,6.9,-,N/A,,Overcast,60,2013-09-26 03:15:00
10:35 PM,53.4,53.4,100,29.97,1.0,ENE,6.9,-,N/A,,Overcast,60,2013-09-26 03:35:00
10:55 PM,53.6,53.6,100,29.97,1.0,NE,5.8,-,N/A,,Overcast,50,2013-09-26 03:55:00
11:15 PM,53.6,53.6,100,29.98,1.0,NE,6.9,-,N/A,,Overcast,50,2013-09-26 04:15:00
11:35 PM,53.6,53.6,100,29.98,1.0,ENE,6.9,-,N/A,,Overcast,60,2013-09-26 04:35:00
11:55 PM,53.8,53.8,100,29.99,1.5,NE,6.9,-,N/A,,Overcast,50,2013-09-26 04:55:00